Tucson Davis Monthan, AZ

8:31 PM MST on June 24, 2018 (GMT -0700)
Davis-Monthan Air Force Base

Weather History for KDMA - December, 2017

Change the Weather History Date:

Saturday, December 9, 2017

  Actual Average Record
Temperature  
Mean Temperature 56 °F -  
Max Temperature 73 °F 65 °F 81 °F (1981)
Min Temperature 39 °F 39 °F 23 °F (1978)
Degree Days  
Heating Degree Days 9    
Growing Degree Days 6 (Base 50)    
Moisture  
Dew Point 12 °F    
Average Humidity 19    
Maximum Humidity 32    
Minimum Humidity 9    
Precipitation  
Precipitation 0.00 in - - ()
Sea Level Pressure  
Sea Level Pressure 30.23 in    
Wind  
Wind Speed 10 mph (East)    
Max Wind Speed 16 mph    
Max Gust Speed 28 mph    
Visibility 10 miles    
Events      
Averages and records for this station are not official NWS values.
T = Trace of Precipitation, MM = Missing Value Source: NWS Daily Summary

Daily Weather History Graph

Daily Weather History Graph

Search for Another Location

Airport or City:

Astronomy

Dec. 09, 2017 Rise Set
Actual Time 7:13 AM MST 5:18 PM MST
Civil Twilight 6:46 AM MST 5:45 PM MST
Nautical Twilight 6:15 AM MST 6:16 PM MST
Astronomical Twilight 5:45 AM MST 6:46 PM MST
Moon No Moon Rise 12:25 PM MST (12/9)
Length of Visible Light 10h 59m
Length of Day
10h 05m
Waning Gibbous, 56% of the Moon is Illuminated
Dec 9
Waning Gibbous
Dec 10
Last Quarter
Dec 17
New
Dec 26
First Quarter
Jan 1
Full

Hourly Weather History & Observations

Time (MST) Temp. Windchill Dew Point Humidity Pressure Visibility Wind Dir Wind Speed Gust Speed Precip Events Conditions
12:58 AM 39.0 °F 34.0 °F 10.2 °F 31% 30.29 in 10.0 mi SE 6.9 mph - N/A   Clear
1:58 AM 41.2 °F 35.5 °F 11.3 °F 30% 30.27 in 10.0 mi ESE 9.2 mph - N/A   Clear
2:58 AM 40.1 °F 35.3 °F 11.8 °F 32% 30.27 in 10.0 mi ESE 6.9 mph - N/A   Clear
3:58 AM 39.4 °F 32.7 °F 10.6 °F 31% 30.27 in 10.0 mi ESE 10.4 mph - N/A   Clear
4:58 AM 45.0 °F 39.7 °F 12.9 °F 27% 30.25 in 10.0 mi SE 10.4 mph - N/A   Clear
5:58 AM 46.2 °F 41.7 °F 13.3 °F 27% 30.27 in 10.0 mi SE 9.2 mph - N/A   Clear
6:58 AM 46.4 °F 40.7 °F 12.4 °F 25% 30.29 in 10.0 mi SE 12.7 mph - N/A   Clear
7:58 AM 49.1 °F - 12.9 °F 23% 30.29 in 10.0 mi SE 13.8 mph - N/A   Clear
8:58 AM 51.1 °F - 14.5 °F 23% 30.30 in 10.0 mi SE 10.4 mph - N/A   Clear
9:58 AM 58.1 °F - 14.7 °F 18% 30.30 in 10.0 mi SSE 6.9 mph - N/A   Clear
10:58 AM 67.1 °F - 10.8 °F 11% 30.25 in 10.0 mi NE 5.8 mph - N/A   Clear
11:58 AM 69.3 °F - 8.1 °F 9% 30.23 in 10.0 mi East 12.7 mph 27.6 mph N/A   Clear
12:58 PM 72.1 °F - 10.2 °F 9% 30.20 in 10.0 mi ENE 11.5 mph - N/A   Clear
1:58 PM 73.6 °F - 11.3 °F 9% 30.17 in 10.0 mi ENE 10.4 mph 19.6 mph N/A   Clear
2:03 PM 73.4 °F - 12.2 °F 10% 30.17 in 10.0 mi ENE 16.1 mph 19.6 mph N/A   Clear
2:58 PM 73.2 °F - 10.9 °F 9% 30.16 in 10.0 mi East 13.8 mph 17.3 mph N/A   Clear
3:58 PM 70.0 °F - 13.1 °F 11% 30.16 in 10.0 mi ENE 13.8 mph - N/A   Clear
4:58 PM 66.9 °F - 12.6 °F 12% 30.17 in 10.0 mi ENE 10.4 mph - N/A   Clear
5:58 PM 62.4 °F - 14.2 °F 15% 30.19 in 10.0 mi ENE 10.4 mph - N/A   Clear
6:58 PM 61.0 °F - 14.4 °F 16% 30.20 in 10.0 mi ENE 11.5 mph - N/A   Clear
7:58 PM 58.3 °F - 12.2 °F 16% 30.21 in 10.0 mi ENE 8.1 mph - N/A   Clear
8:58 PM 54.9 °F - 12.2 °F 18% 30.21 in 10.0 mi East 8.1 mph - N/A   Clear
9:58 PM 52.7 °F - 11.5 °F 19% 30.20 in 10.0 mi ESE 6.9 mph - N/A   Clear
10:58 PM 53.4 °F - 10.9 °F 18% 30.19 in 10.0 mi ENE 6.9 mph - N/A   Clear
11:58 PM 50.4 °F - 9.7 °F 19% 30.19 in 10.0 mi South 10.4 mph - N/A   Clear